NOAA 16 DEB, 42393

Orbit data source: Space-Track

NOAA 16 DEB, 42393 is space debris in SSO originally from a launch on Thu, 21 Sep 2000 UTC launched from the Air Force Western Test Range (AFWTR). Debris objects in space refer to the collection of defunct objects orbiting the Earth. Examples of debris include non-operational satellites, rocket bodies, and fragments generated from explosions, collisions, or faulty payload assembly.

Loading next visibility...
Identifier
42393, 2000-055SM
Orbit
SSO
Country
Flag of USUS
Related business
Manufacturer
Unknown
Mission
Spacecraft
Bus & Motor
Unknown
Mass
Unknown
Launch date (UTC)
2000-09-21 (25 years ago)
Launch vehicle
Unknown
Launch site
Air Force Western Test Range (AFWTR)
Object type
Payload
Rocket body
Debris
Shape & HBR
Unknown shape, 0.1 m
Radar Cross Section
Small (<0.1 m²)

Expand to show TLE details & history
Last TLE update: 4 days ago

TLE from 4 days ago
0 NOAA 16 DEB
1 42393U 00055SM  25343.68804414  .00010640  00000-0  44351-2 0  9993
2 42393  98.9241  68.0057 0039353  91.9251 268.6435 14.26005233502223
Epoch: 2025-12-09T16:30Z
TLE epoch observation values (Epoch: 2025-12-09T16:30:47.013Z)
Latitude
-0.00011°
Longitude
101.64069°
Altitude
808.811 km
Speed
7.449 km/s
True Right ascension
04h 32m 01s
True Declination
0° 00' 00"
Sunlit
Object was in full shadow at epoch
Visualization orbit readout
Latitude
Unknown
Longitude
Unknown
Altitude
Unknown
Speed
Unknown
Apparent Right ascension
Unknown
Apparent Declination
Unknown
Sunlit
N/A
Visualization observer readout
Local Sidereal Time
09:17:37
Azimuth
Unknown
Elevation
Unknown
Doppler factor
Unknown
Orbital elements
Apogee altitude
830.533 km
Perigee altitude
774.019 km
Semi-major axis
7,180.413 km
Eccentricity
0.00394
Inclination
98.9241°
RAAN
68.0057°
Arg. of periapsis
91.9251°
True anomaly
268.19273°
Mean anomaly
268.6435°
Eccentric anomaly
268.41811°
Mean motion
3.56713 °/min
Orbital period
100.92 mins
BSTAR
0.0044351
Loading maneuver chart data...
Computing Atmospheric mass density...
Loading historical data...
Loading historical data...
Loading historical data...
Loading historical data...
Loading historical data...
Loading historical data...
Loading historical data...

Documentation

Showing up to 5 results
|